INTELSAT 36 (IS-36)

Last updated on Sat Oct 12 2024 00:02:40 GMT+0000 (Coordinated Universal Time)

1 41747U 16053A 24284.56716204 -.00000020 00000+0 00000+0 0 9990 2 41747 0.0100 259.5684 0002082 113.8214 278.9623 1.00270565 29775
UTC large
Height (km)
Speed (km/s)
/
Latitude / Longitude
Inclination (degrees)
Orbital Period (minutes)
Azimuth
Elevation
Range (km)
Doppler Factor

Next 0 passes for location: London (51.5072 / 0.1276)

Sorry there are no passes over London.